Regional Weather Roundup
Issued by NWS Charleston, SC

Current Version | Previous Version | Graphics & Text | Print | Product List | Glossary On
Versions: 1 2 3 4 5 6 7 8 9 10 11 12 13 14 15 16 17 18 19 20 21 22 23 24 25 26 27 28 29 30 31 32 33 34 35 36 37 38 39 40 41 42 43 44 45 46 47 48 49 50
000
ASUS42 KCHS 191910
RWRCHS
REGIONAL WEATHER ROUNDUP
NATIONAL WEATHER SERVICE CHARLESTON SC
200 PM EST FRI DEC 19 2014

NOTE: "FAIR" INDICATES FEW OR NO CLOUDS BELOW 12,000 FEET WITH NO
SIGNIFICANT WEATHER AND/OR OBSTRUCTIONS TO VISIBILITY.

NOT ALL STATIONS ARE QUALITY CONTROLLED BY THE NATIONAL
WEATHER SERVICE. USE DATA WITH CAUTION...ESPECIALLY
DEWPOINT OBSERVATIONS.

SCZ027-030-031-034>040-042>050-192000-
...SOUTHEAST SOUTH CAROLINA...

CITY           SKY/WX    TMP DP  RH WIND       PRES   REMARKS
N CHARLESTON   PTSUNNY   60  44  55 E6        30.10F
WATERFRONT PRK   N/A     61 N/A N/A E7          N/A
MOUNT PLEASANT LGT RAIN  61  48  63 CALM      30.11S
PINOPOLIS        N/A     57  48  72 NW7       30.02F
MONCKS CORNER  FAIR      61  46  59 CALM      30.10S
SUMMERVILLE    NOT AVBL
BEAUFORT MCAS  CLOUDY    61  44  53 CALM      30.11F
BEAUFORT ARPT  FAIR      61  48  63 E3        30.10F
HILTON HEAD IS MOSUNNY   61  46  59 CALM      30.11F
WALTERBORO     PTCLDY    63  36  36 SE3       30.10F
ALLENDALE      FAIR      61  41  48 S3        30.09F

...SOUTHERN MIDLANDS AND PEE DEE...

CITY           SKY/WX    TMP DP  RH WIND       PRES   REMARKS
GEORGETOWN     NOT AVBL
KINGSTREE      NOT AVBL
ORANGEBURG     SUNNY     59  40  49 VRB3      30.09F
BARNWELL       FAIR      63  41  45 S3        30.10F
AIKEN          FAIR      61  37  41 CALM      30.12F
MANNING        NOT AVBL
COLUMBIA       MOSUNNY   61  37  41 MISG      30.09F
SUMTER         SUNNY     59  33  37 SE3       30.09F
FLORENCE       SUNNY     59  29  31 E5        30.11F
MYRTLE BEACH   SUNNY     57  36  44 VRB7      30.12F
N MYRTLE BEACH SUNNY     56  34  43 S8        30.10F

$$

GAZ063-065-086>088-099>101-113>116-118-119-134>141-150-192000-
...SOUTHEAST GEORGIA...

CITY           SKY/WX    TMP DP  RH WIND       PRES   REMARKS
SAVANNAH ARPT  PTSUNNY   63  40  42 N5        30.11F
HUNTER AAF     CLOUDY    63  42  46 VRB3      30.08F
FORT STEWART   MOSUNNY   60  41  50 W3        30.10S
STATESBORO     SUNNY     60  42  51 CALM      30.10F
SYLVANIA       PTCLDY    60  43  54 CALM      30.11F
CLAXTON        FAIR      61  43  51 CALM      30.10F

...CSRA...CENTRAL AND FAR SOUTHEAST GEORGIA...

CITY           SKY/WX    TMP DP  RH WIND       PRES   REMARKS
THOMSON        SUNNY     62  42  47 CALM      30.14S
AUGUSTA-BUSH   SUNNY     64  37  36 SW5       30.09F
AUGUSTA-DANIEL SUNNY     62  37  39 SE5       30.10F
SWAINSBORO     FAIR      61  43  51 NW3       30.11F
VIDALIA        MOSUNNY   61  43  51 CALM      30.11F
EASTMAN        FAIR      59  41  52 CALM      30.14F
HAZLEHURST     FAIR      60  43  55 CALM      30.10F
ALMA           PTSUNNY   63  34  33 N3        30.10F
WAYCROSS       MOSUNNY   67  41  39 CALM      30.10F
JESUP          FAIR      66  43  42 NW5       30.11S
BAXLEY         FAIR      61  43  51 CALM      30.10F
BRUNSWICK      PTSUNNY   66  37  34 S5        30.11S
SAINT SIMONS   PTSUNNY   63  42  46 SW3       30.10F

$$

SCZ027-028-034-036>038-045-046-048>050-GAZ119-141-192000-
...LAKE AND SUPPLEMENTAL COASTAL OBSERVATIONS...

STATION/POSITION TIME  TEMP    WIND        PRES    WAVE   SWELL
                       AIR SEA DIR/SP/G            HT/PER HT/PER/DIR
                 (UTC) (F)     (DEG/KT/KT) (MB)    (FT/S) (FT/S/D)
UPR LAKE MARION  NOT AVBL
WINYAH BAY       1800   52      60/  9     1020.0S
LAKE MURRAY      1800   55     200/  5/  7 1019.3F
ACE BASIN NERRS  1800   59      30/  1     1020.0S
FORT PULASKI     1900   56 56   50/  2/  3 1019.7S
SAPELO ISLAND    1800   60     240/  3     1020.0S

$$

ANZ835-935-AMZ111-154-330-350-352-354-370-450-454-472-192000-
...C-MAN AND BUOY OBSERVATIONS...

STATION/POSITION TIME  TEMP    WIND        PRES    WAVE   SWELL
                       AIR SEA DIR/SP/G            HT/PER HT/PER/DIR
                 (UTC) (F)     (DEG/KT/KT) (MB)    (FT/S) (FT/S/D)
BUOY 41004       1900   62 67   30/  6/ 10 1018.6F   1/10   2/10
BUOY 41008       1900   56 58  350/  4/  6 1019.1F   1/11   2/ 90/11
FOLLY BEACH CMAN 1800   56      50/  8/  9 1020.2F
CAPERS NEARSHORE 1800   54      70/ 12/ 14   N/A
FRIPP NEARSHORE  NOT AVBL


STATION/POSITION TIME  TEMP    WIND        PRES    WAVE   SWELL
                       AIR SEA DIR/SP/G            HT/PER HT/PER/DIR
                 (UTC) (F)     (DEG/KT/KT) (MB)    (FT/S) (FT/S/D)
5E ST. MARYS GA  1800      62                N/A     1/10
FRYING PAN BUOY  1900   54 63   30/  6/  8 1020.2F   2/ 9   2/ 90/ 9
BUOY 41025       1900   48                 1019.8F   3/ 8
CAPE LOOKOUT NC  1800   51      20/  6/  8 1019.5F
BUOY 41002       1803   67 73  340/  8/ 10 1018.0F   3/ 8   3/ 20/ 8
BUOY 41010       1900   71 76   10/  2/  4 1018.4F   2/ 9   2/ 60/ 9
ST AUGUSTINE FL  1900   62      40/  3/  4 1019.4F


$$


USA.gov is the U.S. government's official web portal to all federal, state and local government web resources and services.